Meteo pe oră la Alihe

Astăzi, 17 Ianuarie, Duminică

Timp Temperatura Precipitaţii Vânt Presiune Umiditate
00:00 -27°C° 0 mm 1 m/s 714 mmHg 92%
01:00 -28°C° 0 mm 1 m/s 714 mmHg 93%
02:00 -28°C° 0 mm 1 m/s 714 mmHg 93%
03:00 -29°C° 0 mm 1 m/s 714 mmHg 93%
04:00 -29°C° 0 mm 1 m/s 713 mmHg 93%
05:00 -29°C° 0 mm 1 m/s 713 mmHg 93%
06:00 -30°C° 0 mm 1 m/s 713 mmHg 93%
07:00 -30°C° 0 mm 1 m/s 713 mmHg 93%
08:00 -30°C° 0 mm 1 m/s 713 mmHg 93%
09:00 -28°C° 0 mm 1 m/s 713 mmHg 86%
10:00 -27°C° 0 mm 1 m/s 713 mmHg 79%
11:00 -24°C° 0 mm 1 m/s 713 mmHg 72%
12:00 -24°C° 0 mm 1 m/s 713 mmHg 69%
13:00 -23°C° 0 mm 1 m/s 713 mmHg 67%
14:00 -23°C° 0 mm 1 m/s 712 mmHg 65%
15:00 -24°C° 0 mm 1 m/s 713 mmHg 72%
16:00 -25°C° 0 mm 1 m/s 713 mmHg 79%
17:00 -25°C° 0 mm 1 m/s 714 mmHg 87%
18:00 -27°C° 0 mm 1 m/s 714 mmHg 89%
19:00 -27°C° 0 mm 1 m/s 714 mmHg 90%
20:00 -27°C° 0 mm 1 m/s 714 mmHg 92%
21:00 -28°C° 0 mm 1 m/s 715 mmHg 92%
22:00 -28°C° 0 mm 1 m/s 715 mmHg 92%
23:00 -29°C° 0 mm 1 m/s 715 mmHg 92%

Mâine, 18 Ianuarie, Luni

Timp Temperatura Precipitaţii Vânt Presiune Umiditate
00:00 -29°C° 0 mm 1 m/s 715 mmHg 92%
01:00 -30°C° 0 mm 1 m/s 715 mmHg 91%
02:00 -30°C° 0 mm 1 m/s 716 mmHg 91%
03:00 -30°C° 0 mm 1 m/s 716 mmHg 91%
04:00 -30°C° 0 mm 1 m/s 716 mmHg 90%
05:00 -31°C° 0 mm 1 m/s 717 mmHg 90%
06:00 -31°C° 0 mm 1 m/s 717 mmHg 89%
07:00 -31°C° 0 mm 1 m/s 717 mmHg 89%
08:00 -31°C° 0 mm 1 m/s 718 mmHg 89%
09:00 -32°C° 0 mm 2 m/s 718 mmHg 81%
10:00 -30°C° 0 mm 2 m/s 718 mmHg 73%
11:00 -29°C° 0 mm 2 m/s 719 mmHg 65%
12:00 -28°C° 0 mm 2 m/s 719 mmHg 65%
13:00 -27°C° 0 mm 2 m/s 719 mmHg 64%
14:00 -29°C° 0 mm 3 m/s 718 mmHg 64%
15:00 -28°C° 0 mm 2 m/s 719 mmHg 70%
16:00 -29°C° 0 mm 2 m/s 719 mmHg 76%
17:00 -28°C° 0 mm 1 m/s 720 mmHg 82%
18:00 -28°C° 0 mm 1 m/s 720 mmHg 83%
19:00 -29°C° 0 mm 1 m/s 720 mmHg 83%
20:00 -29°C° 0 mm 1 m/s 720 mmHg 84%
21:00 -30°C° 0 mm 1 m/s 720 mmHg 83%
22:00 -30°C° 0 mm 1 m/s 720 mmHg 82%
23:00 -30°C° 0 mm 1 m/s 720 mmHg 82%

Poimâine, 19 Ianuarie, Marţi

Timp Temperatura Precipitaţii Vânt Presiune Umiditate
00:00 -30°C° 0 mm 1 m/s 720 mmHg 81%
01:00 -30°C° 0 mm 1 m/s 720 mmHg 80%
02:00 -30°C° 0 mm 1 m/s 720 mmHg 79%
03:00 -30°C° 0 mm 1 m/s 719 mmHg 77%
04:00 -29°C° 0 mm 1 m/s 719 mmHg 74%
05:00 -29°C° 0 mm 1 m/s 719 mmHg 72%
06:00 -29°C° 0 mm 1 m/s 719 mmHg 72%
07:00 -28°C° 0 mm 1 m/s 719 mmHg 72%
08:00 -28°C° 0 mm 1 m/s 719 mmHg 72%
09:00 -27°C° 0 mm 1 m/s 719 mmHg 73%
10:00 -25°C° 0 mm 1 m/s 719 mmHg 75%
11:00 -23°C° 0 mm 1 m/s 719 mmHg 77%
12:00 -25°C° 0 mm 2 m/s 718 mmHg 75%
13:00 -25°C° 0 mm 2 m/s 718 mmHg 72%
14:00 -24°C° 0 mm 2 m/s 717 mmHg 70%
15:00 -22°C° 0 mm 1 m/s 717 mmHg 76%
16:00 -23°C° 0 mm 1 m/s 718 mmHg 81%
17:00 -24°C° 0 mm 1 m/s 718 mmHg 87%
18:00 -24°C° 0 mm 1 m/s 718 mmHg 88%
19:00 -25°C° 0 mm 1 m/s 717 mmHg 89%
20:00 -25°C° 0 mm 1 m/s 717 mmHg 91%
21:00 -24°C° 0 mm 1 m/s 717 mmHg 90%
22:00 -24°C° 0 mm 1 m/s 717 mmHg 90%
23:00 -23°C° 0 mm 1 m/s 717 mmHg 89%

20 Ianuarie, Miercuri

Timp Temperatura Precipitaţii Vânt Presiune Umiditate
00:00 -23°C° 0 mm 1 m/s 716 mmHg 90%
01:00 -23°C° 0 mm 1 m/s 716 mmHg 91%
02:00 -23°C° 0 mm 1 m/s 716 mmHg 92%
03:00 -23°C° 0 mm 1 m/s 716 mmHg 92%
04:00 -24°C° 0 mm 1 m/s 716 mmHg 92%
05:00 -24°C° 0 mm 1 m/s 716 mmHg 92%
06:00 -24°C° 0 mm 1 m/s 716 mmHg 92%
07:00 -25°C° 0 mm 1 m/s 717 mmHg 92%
08:00 -25°C° 0 mm 1 m/s 717 mmHg 92%
09:00 -23°C° 0 mm 1 m/s 718 mmHg 86%
10:00 -21°C° 0 mm 1 m/s 718 mmHg 79%
11:00 -19°C° 0 mm 1 m/s 718 mmHg 73%
12:00 -18°C° 0 mm 1 m/s 718 mmHg 70%
13:00 -17°C° 0 mm 1 m/s 718 mmHg 67%
14:00 -16°C° 0 mm 1 m/s 718 mmHg 64%
15:00 -17°C° 0 mm 1 m/s 718 mmHg 71%
16:00 -19°C° 0 mm 0 m/s 719 mmHg 78%
17:00 -21°C° 0 mm 0 m/s 719 mmHg 85%
18:00 -21°C° 0 mm 1 m/s 719 mmHg 86%
19:00 -21°C° 0 mm 1 m/s 719 mmHg 88%
20:00 -21°C° 0 mm 1 m/s 719 mmHg 89%
21:00 -21°C° 0 mm 1 m/s 719 mmHg 91%
22:00 -21°C° 0 mm 1 m/s 719 mmHg 92%
23:00 -21°C° 0 mm 1 m/s 718 mmHg 93%

21 Ianuarie, Joi

Timp Temperatura Precipitaţii Vânt Presiune Umiditate
00:00 -21°C° 0 mm 0 m/s 718 mmHg 95%
01:00 -21°C° 0 mm 0 m/s 718 mmHg 97%
02:00 -21°C° 0 mm 0 m/s 718 mmHg 99%
03:00 -21°C° 0.1 mm 0 m/s 717 mmHg 98%
04:00 -21°C° 0.1 mm 0 m/s 717 mmHg 98%
05:00 -21°C° 0.1 mm 0 m/s 717 mmHg 98%
06:00 -21°C° 0 mm 0 m/s 717 mmHg 98%
07:00 -21°C° 0 mm 0 m/s 717 mmHg 97%
08:00 -22°C° 0 mm 0 m/s 718 mmHg 97%
09:00 -20°C° 0 mm 0 m/s 718 mmHg 90%
10:00 -18°C° 0 mm 0 m/s 718 mmHg 83%
11:00 -16°C° 0 mm 1 m/s 718 mmHg 76%
12:00 -16°C° 0 mm 0 m/s 719 mmHg 74%
13:00 -15°C° 0 mm 0 m/s 719 mmHg 72%
14:00 -14°C° 0 mm 0 m/s 719 mmHg 70%
15:00 -16°C° 0 mm 0 m/s 719 mmHg 77%
16:00 -18°C° 0 mm 0 m/s 720 mmHg 85%
17:00 -20°C° 0 mm 0 m/s 720 mmHg 92%
18:00 -21°C° 0 mm 0 m/s 721 mmHg 93%
19:00 -21°C° 0 mm 0 m/s 721 mmHg 95%
20:00 -22°C° 0 mm 0 m/s 722 mmHg 97%
21:00 -23°C° 0 mm 0 m/s 722 mmHg 97%
22:00 -23°C° 0 mm 0 m/s 722 mmHg 97%
23:00 -23°C° 0 mm 0 m/s 722 mmHg 98%

22 Ianuarie, Vineri

Timp Temperatura Precipitaţii Vânt Presiune Umiditate
00:00 -23°C° 0 mm 0 m/s 722 mmHg 98%
01:00 -24°C° 0 mm 0 m/s 723 mmHg 98%
02:00 -24°C° 0 mm 0 m/s 723 mmHg 98%
03:00 -24°C° 0 mm 0 m/s 723 mmHg 98%
04:00 -24°C° 0 mm 0 m/s 723 mmHg 98%
05:00 -25°C° 0 mm 0 m/s 723 mmHg 98%
06:00 -25°C° 0 mm 0 m/s 723 mmHg 98%
07:00 -25°C° 0 mm 0 m/s 723 mmHg 98%
08:00 -25°C° 0 mm 0 m/s 723 mmHg 98%
09:00 -23°C° 0 mm 0 m/s 723 mmHg 92%
10:00 -20°C° 0 mm 0 m/s 723 mmHg 86%
11:00 -18°C° 0 mm 1 m/s 723 mmHg 80%
12:00 -18°C° 0 mm 1 m/s 723 mmHg 78%
13:00 -17°C° 0 mm 1 m/s 722 mmHg 77%
14:00 -16°C° 0 mm 1 m/s 722 mmHg 76%
15:00 -18°C° 0 mm 1 m/s 722 mmHg 82%
16:00 -19°C° 0 mm 1 m/s 722 mmHg 88%
17:00 -21°C° 0 mm 1 m/s 722 mmHg 95%
18:00 -21°C° 0 mm 0 m/s 722 mmHg 95%
19:00 -22°C° 0 mm 0 m/s 722 mmHg 96%
20:00 -22°C° 0 mm 0 m/s 722 mmHg 97%
21:00 -22°C° 0 mm 0 m/s 722 mmHg 96%
22:00 -22°C° 0 mm 0 m/s 722 mmHg 96%
23:00 -22°C° 0 mm 0 m/s 722 mmHg 95%
Arată mai mult

Formular de consimțământ

Meteoprog și furnizorii noștri de servicii pot stoca și accesa date personale, precum cookies, identificatori de dispozitiv sau alte tehnologii similare pe dispozitivul dumneavoastră și procesa astfel de date pentru a personaliza conținutul și reclamele, dar și pentru a oferi caracteristici de social media și pentru a analiza traficul.

  • Stocarea și/sau accesarea informațiilor pe dispozitivul dumneavoastră

    Cookies, identificatori de dispozitiv sau alte informații pot fi stocate sau accesate pe dispozitiv în scopurile indicate mai sus.

  • Reclame și conținut personalizat, evaluarea reclamelor și a conținutului, informații despre audiențe și dezvoltarea produselor

    Reclamele și conținutul pot fi personalizate pe baza unui profil. Pot fi adăugate date suplimentare pentru a personaliza mai bine reclamele și conținutul. Performanța reclamelor și conținutului poate fi măsurată. Pot fi obținute informații despre utilizatorii care au văzut reclamele și conținutul. Aceste date pot fi utilizate pentru a dezvolta sau îmbunătăți experiența utilizatorilor, sistemele și software-ul.

Dând clic pe ‘Sunt de acord’, permiteți utilizarea cookie-urilor menționate, a identificatorilor de dispozitiv, balizelor web sau altor tehnologii similare. Setările pot fi modificate din browser-ul dispozitivului dumneavoastră.

În anumite scopuri, interesele legitime pot prima asupra consimțământului. Puteți citi mai multe informații în acest sens în Politica privind Confidențialitatea Datelor și Cookie.